We konden geen weer-waarchuwingen ophalen. Ga rechtstreeks naar de Meteoalarm site : www.meteoalarm.eu en controleer daar .



Onweer radar Meer informatie blitzortung!


Regen radar Meer informatie rain snow radar


Bezoek onze andere website:

Template documentation
and downloads

And another site



15 daagse weersverwachting Neuchâtel (CH)

  • Overzicht
  • Per uur
  • 15 dagen
  • Extra
  • Vergelijk
  • Kaarten
  • Dagkaart
  • Meer »
  • Info
  • Statistieken
  • Directe link
    Temp 6h Neerslag Wind  
 06:35     20:38    Daglengte: 14:03 Vandaag
02:00
17°
3.8 mm
1
08:00
18°
 
1
14:00
21°
7.4 mm
2
20:00
20°
10.4 mm
2
 06:36     20:36    Daglengte: 14:00 Morgen
02:00
18°
 
2
08:00
18°
 
2
14:00
21°
 
3
20:00
21°
2.5 mm
1
 06:38     20:34    Daglengte: 13:56 Zaterdag 20 Aug
02:00
17°
 
3
08:00
17°
7.9 mm
2
14:00
20°
18.3 mm
1
20:00
20°
 
2
Locatie info
Region: Neuchâtel
Latitude: 46.9903°N
Longitude: 6.9311°E
441 masl
Postcode: 2000
Temp/Neerslag /Baro Onweer/Dauwpunt
    Temp Baro 1h Neerslag Dauwpunt Wind UV Bewolking  
 06:35     20:38    Daglengte: 14:03 Vandaag
02:00
17°
1014.4 hPa 3.8 mm
49%
14.8°
1
Windvlaag: -0.6 m/s
57%
03:00
17°
1014.0 hPa
14%
14.7°
1
Windvlaag: 0.5 m/s
65%
04:00
17°
1013.5 hPa
14%
14.7°
1
Windvlaag: 1.1 m/s
72%
05:00
17°
1013.2 hPa
64%
14.5°
1
Windvlaag: -1 m/s
80%
06:00
17°
1013.0 hPa
69%
14.4°
1
Windvlaag: -1.3 m/s
86%
07:00
17°
1013.0 hPa
64%
14.3°
1
Windvlaag: -1 m/s
60%
08:00
18°
1013.2 hPa
77%
13.9°
1
Windvlaag: -0.1 m/s
58%
09:00
18°
1013.4 hPa
82%
13.4°
1
Windvlaag: 0.9 m/s
71% warningclass
10:00
19°
1013.4 hPa
77%
12.6°
2
Windvlaag: 1.4 m/s
73%
11:00
20°
1013.4 hPa
77%
12.4°
2
Windvlaag: 2.1 m/s
74%
12:00
20°
1013.2 hPa 2.3 mm
82%
12.0°
2
Windvlaag: 2.4 m/s
83%
13:00
20°
1012.9 hPa 2.7 mm
82%
11.5°
2
Windvlaag: 2.5 m/s
60%
14:00
21°
1012.4 hPa 2.5 mm
82%
12.6°
2
Windvlaag: 3 m/s
74%
15:00
21°
1012.4 hPa 2.8 mm
82%
11.9°
2
Windvlaag: 2.8 m/s
66% warningclass
16:00
21°
1012.0 hPa 2.8 mm
82%
12.6°
2
Windvlaag: 1 m/s
68%
17:00
21°
1012.0 hPa 2.5 mm
82%
11.4°
2
Windvlaag: -0.9 m/s
69%
18:00
20°
1011.9 hPa 2.3 mm
82%
10.7°
3
Windvlaag: -2.6 m/s
64%
19:00
20°
1012.1 hPa
82%
10.6°
2
Windvlaag: -3.2 m/s
70%
20:00
20°
1012.3 hPa
82%
11.1°
2
Windvlaag: -2.9 m/s
71%
21:00
19°
1012.8 hPa
72%
11.9°
2
Windvlaag: -1.6 m/s
71%
22:00
19°
1013.1 hPa
67%
12.5°
1
Windvlaag: 0.3 m/s
74%
23:00
18°
1013.4 hPa
66%
12.2°
2
Windvlaag: 0.8 m/s
76%
 06:36     20:36    Daglengte: 14:00 Morgen
00:00
18°
1013.8 hPa
39%
11.5°
1
Windvlaag: -1.4 m/s
34%
01:00
18°
1013.8 hPa
47%
11.4°
1
Windvlaag: -1.2 m/s
84%
02:00
18°
1013.7 hPa
44%
11.0°
2
Windvlaag: -1.9 m/s
72%
03:00
18°
1013.6 hPa
35%
12.1°
2
Windvlaag: -3.3 m/s
73%
04:00
18°
1013.5 hPa
41%
12.7°
3
Windvlaag: -2.2 m/s
22%
05:00
18°
1013.4 hPa
37%
12.3°
3
Windvlaag: -2.2 m/s
22%
06:00
18°
1013.9 hPa
45%
12.1°
2
Windvlaag: -2.3 m/s
79%
07:00
18°
1014.6 hPa
80%
12.5°
3
Windvlaag: -2.6 m/s
74%
08:00
18°
1015.0 hPa
46%
12.8°
2
Windvlaag: -2.5 m/s
42%
09:00
18°
1015.4 hPa
74%
13.0°
2
Windvlaag: -1.6 m/s
67%
10:00
19°
1015.7 hPa
80%
13.2°
2
Windvlaag: -1 m/s
41%
11:00
20°
1016.2 hPa
79%
13.6°
2
Windvlaag: -0.9 m/s
22%
12:00
20°
1016.4 hPa
81%
14.4°
3
Windvlaag: 2.8 m/s
10%
13:00
21°
1016.3 hPa
82%
14.1°
3
Windvlaag: 3.1 m/s
10%
14:00
21°
1016.4 hPa
74%
13.3°
3
Windvlaag: 5.3 m/s
22%
15:00
21°
1016.6 hPa 2.5 mm
81%
12.1°
2
Windvlaag: 5.4 m/s
4%
16:00
22°
1016.4 hPa
82%
11.4°
2
Windvlaag: 4.4 m/s
4%
17:00
22°
1016.3 hPa
79%
10.7°
3
Windvlaag: 2.8 m/s
10%
18:00
22°
1016.6 hPa
20%
11.0°
3
Windvlaag: -0.8 m/s
4%
19:00
22°
1017.0 hPa
21%
13.3°
2
Windvlaag: -2.4 m/s
8%
20:00
21°
1017.3 hPa
14%
14.5°
1
Windvlaag: -1.8 m/s
8%
21:00
20°
1018.0 hPa
14%
14.2°
1
Windvlaag: -0.2 m/s
11%
22:00
19°
1018.3 hPa
14%
12.6°
2
Windvlaag: -0.1 m/s
1%
23:00
18°
1018.8 hPa
21%
11.9°
2
Windvlaag: 1.1 m/s
0%
 06:38     20:34    Daglengte: 13:56 Zaterdag 20 Aug
00:00
18°
1019.0 hPa
23%
11.1°
2
Windvlaag: 1.7 m/s
0%
01:00
17°
1019.0 hPa
21%
9.7°
2
Windvlaag: 0.5 m/s
3%
02:00
17°
1018.9 hPa
21%
9.1°
3
Windvlaag: -0.6 m/s
6%
03:00
16°
1018.7 hPa
21%
9.6°
2
Windvlaag: -0.7 m/s
14%
04:00
16°
1018.7 hPa
22%
10.6°
2
Windvlaag: -1.1 m/s
27%
05:00
15°
1018.6 hPa
29%
10.8°
3
Windvlaag: -2.2 m/s
51%
06:00
15°
1018.6 hPa
79%
10.0°
2
Windvlaag: -2.9 m/s
57%
07:00
17°
1019.0 hPa 4.1 mm
91%
9.3°
2
Windvlaag: -2.9 m/s
70%
08:00
17°
1019.4 hPa 3.9 mm
98%
13.3°
2
Windvlaag: 9 m/s
78%
09:00
17°
1019.6 hPa
99%
15.0°
1
Windvlaag: 6.4 m/s
20%
10:00
18°
1019.6 hPa
96%
16.3°
1
Windvlaag: 1.5 m/s
20%
11:00
19°
1019.7 hPa 4.5 mm
96%
16.0°
1
Windvlaag: 1.9 m/s
20%
12:00
19°
1019.5 hPa 4.5 mm
91%
15.8°
1
Windvlaag: 1.4 m/s
49%
13:00
20°
1019.3 hPa 4.5 mm
98%
15.4°
1
Windvlaag: 2.9 m/s
73%
14:00
20°
1019.1 hPa 4.7 mm
99%
15.0°
1
Windvlaag: 2.3 m/s
48%
15:00
21°
1018.7 hPa
100%
16.1°
2
Windvlaag: 2.4 m/s
42%
16:00
22°
1018.4 hPa
94%
15.4°
3
Windvlaag: 2.9 m/s
20%
17:00
21°
1018.3 hPa
59%
15.2°
3
Windvlaag: 3.1 m/s
41%
18:00
21°
1018.3 hPa
94%
14.3°
3
Windvlaag: 2.9 m/s
15%
19:00
21°
1018.4 hPa
37%
13.8°
3
Windvlaag: 3.2 m/s
12%
20:00
20°
1018.8 hPa
27%
15.0°
2
Windvlaag: 3.9 m/s
5%
21:00
18°
1019.1 hPa
24%
14.9°
2
Windvlaag: 5.5 m/s
1%
22:00
18°
1019.3 hPa
26%
14.7°
2
Windvlaag: 4.8 m/s
0%
23:00
18°
1019.4 hPa
29%
13.6°
2
Windvlaag: 4.1 m/s
3%
 06:39     20:32    Daglengte: 13:53 Zondag 21 Aug
00:00
17°
1019.1 hPa
26%
13.0°
2
Windvlaag: 3.4 m/s
7%
01:00
17°
1019.1 hPa
25%
13.5°
1
Windvlaag: 3 m/s
24%
Temp/Neerslag /Baro Onweer/Dauwpunt
    Temp Baro Neerslag Dauwpunt Wind Bewolking  
 06:35     20:38    Daglengte: 14:03 Vandaag
02:00
17°
1014.4 hPa 3.8 mm 14.8°
1
57%
05:00
17°
1013.2 hPa   14.5°
1
80%
08:00
18°
1013.2 hPa   13.9°
1
58%
11:00
20°
1013.4 hPa   12.4°
2
74%
14:00
21°
1012.4 hPa 7.4 mm 12.6°
2
74%
17:00
21°
1012.0 hPa 8.1 mm 11.4°
2
69%
20:00
20°
1012.3 hPa 2.3 mm 11.1°
2
71%
23:00
18°
1013.4 hPa   12.2°
2
76%
 06:36     20:36    Daglengte: 14:00 Morgen
02:00
18°
1013.7 hPa   11.0°
2
72%
05:00
18°
1013.4 hPa   12.3°
3
22%
08:00
18°
1015.0 hPa   12.8°
2
42%
11:00
20°
1016.2 hPa   13.6°
2
22%
14:00
21°
1016.4 hPa   13.3°
3
22%
17:00
22°
1016.3 hPa 2.5 mm 10.7°
3
10%
20:00
21°
1017.3 hPa   14.5°
1
8%
23:00
18°
1018.8 hPa   11.9°
2
0%
 06:38     20:34    Daglengte: 13:56 Zaterdag 20 Aug
02:00
17°
1018.9 hPa   9.1°
3
6%
05:00
15°
1018.6 hPa   10.8°
3
51%
08:00
17°
1019.4 hPa 7.9 mm 13.3°
2
78%
11:00
19°
1019.7 hPa 4.5 mm 16.0°
1
20%
14:00
20°
1019.1 hPa 13.8 mm 15.0°
1
48%
17:00
21°
1018.3 hPa   15.2°
3
41%
20:00
20°
1018.8 hPa   15.0°
2
5%
23:00
18°
1019.4 hPa   13.6°
2
3%
 06:39     20:32    Daglengte: 13:53 Zondag 21 Aug
02:00
16°
1018.8 hPa   12.3°
1
33%
05:00
14°
1017.7 hPa 81.8 mm 12.4°
1
1%
08:00
15°
1017.5 hPa 81.8 mm 13.3°
0
1%
11:00
21°
1016.8 hPa 81.8 mm 13.1°
0
1%
14:00
23°
1015.5 hPa 81.8 mm 10.5°
1
1%
17:00
21°
1016.2 hPa 81.8 mm 11.3°
3
1%
20:00
18°
1016.3 hPa 81.8 mm 11.2°
2
1%
23:00
16°
1017.0 hPa 81.8 mm 10.2°
2
1%
 06:40     20:30    Daglengte: 13:50 Maandag 22 Aug
02:00
15°
1016.5 hPa 81.8 mm 10.0°
2
1%
05:00
15°
1016.5 hPa 81.8 mm 9.8°
2
0%
08:00
15°
1017.0 hPa 81.8 mm 10.6°
2
0%
11:00
21°
1016.2 hPa 81.8 mm 11.2°
3
0%
14:00
25°
1015.4 hPa 81.8 mm 10.7°
4
0%
17:00
25°
1014.9 hPa 81.8 mm 11.9°
4
0%
20:00
20°
1015.6 hPa 81.9 mm 13.1°
3
0%
23:00
18°
1016.6 hPa 81.9 mm 12.6°
3
1%
 06:42     20:29    Daglengte: 13:47 Dinsdag 23 Aug
02:00
16°
1016.9 hPa 81.9 mm 11.2°
3
0%
05:00
15°
1017.3 hPa 81.9 mm 10.5°
3
0%
08:00
16°
1017.9 hPa 81.9 mm 11.5°
3
0%
11:00
22°
1017.0 hPa 81.9 mm 11.2°
5
0%
14:00
25°
1016.1 hPa 81.9 mm 10.3°
6
0%
17:00
25°
1015.5 hPa 81.9 mm 10.7°
5
0%
20:00
20°
1016.4 hPa 81.9 mm 12.8°
3
0%
23:00
17°
1017.5 hPa 81.9 mm 11.0°
3
1%
 06:43     20:27    Daglengte: 13:44 Woensdag 24 Aug
02:00
16°
1017.1 hPa 81.9 mm 10.4°
3
1%
05:00
15°
1017.1 hPa 81.9 mm 10.0°
3
1%
08:00
15°
1017.6 hPa 81.9 mm 10.6°
2
1%
11:00
21°
1016.9 hPa 81.9 mm 11.5°
2
1%
14:00
25°
1015.9 hPa 81.9 mm 11.4°
3
1%
17:00
26°
1015.4 hPa 81.9 mm 11.3°
3
0%
20:00
20°
1016.3 hPa 81.9 mm 13.7°
3
0%
23:00
18°
1017.5 hPa   12.1°
3
0%
 06:44     20:25    Daglengte: 13:41 Donderdag 25 Aug
02:00
16°
1017.7 hPa 163.8 mm 11.9°
2
0%
08:00
16°
1018.0 hPa 163.8 mm 13.1°
1
0%
14:00
26°
1016.0 hPa 163.8 mm 15.1°
1
0%
20:00
23°
1015.4 hPa 163.8 mm 15.6°
1
0%
 06:45     20:23    Daglengte: 13:38 Vrijdag 26 Aug
02:00
18°
1016.8 hPa 163.8 mm 13.6°
1
0%
08:00
18°
1016.7 hPa 163.8 mm 14.9°
0
0%
14:00
28°
1014.3 hPa 163.8 mm 16.0°
1
0%
20:00
24°
1013.9 hPa 163.8 mm 17.4°
1
1%
 06:47     20:21    Daglengte: 13:34 Zaterdag 27 Aug
02:00
19°
1016.3 hPa 165.5 mm 17.9°
3
1%
08:00
19°
1016.3 hPa 167.5 mm 17.8°
1
1%
14:00
26°
1016.4 hPa 169.8 mm 17.3°
1
1%
20:00
21°
1017.8 hPa 0.5 mm 16.2°
2
47%
 06:48     20:19    Daglengte: 13:31 Zondag 28 Aug
02:00
17°
1019.3 hPa 1.8 mm 14.6°
1
59%
08:00
17°
1019.7 hPa 0.8 mm 15.1°
0
59%
14:00
26°
1018.5 hPa 0.6 mm 17.2°
1
42%
20:00
21°
1018.8 hPa 0.9 mm 16.4°
1
45%
 06:49     20:17    Daglengte: 13:28 Maandag 29 Aug
02:00
17°
1020.2 hPa 0.9 mm 14.4°
0
54%
08:00
17°
1020.3 hPa 0.4 mm 14.5°
0
45%
14:00
26°
1019.0 hPa 0.5 mm 16.4°
2
48%
20:00
21°
1018.8 hPa 0.6 mm 15.6°
2
48%
 06:51     20:15    Daglengte: 13:24 Dinsdag 30 Aug
02:00
16°
1020.0 hPa 0.8 mm 13.2°
0
57%
08:00
16°
1020.0 hPa 0.8 mm 13.7°
0
50%
14:00
25°
1018.2 hPa 0.6 mm 15.7°
1
41%
20:00
20°
1018.0 hPa 0.3 mm 14.9°
2
48%
 06:52     20:13    Daglengte: 13:21 Woensdag 31 Aug
02:00
15°
1019.2 hPa 0.8 mm 13.0°
0
37%
08:00
15°
1018.9 hPa 0.4 mm 13.4°
0
50%
14:00
24°
1017.1 hPa 0.6 mm 15.3°
1
52%
20:00
19°
1017.4 hPa 1.2 mm 14.5°
1
47%
 06:53     20:12    Daglengte: 13:19 Donderdag 01 Sep
02:00
15°
1018.8 hPa 1.1 mm 12.6°
0
48%
08:00
14°
1018.9 hPa 0.5 mm 12.6°
0
45%
14:00
23°
1017.4 hPa 0.5 mm 14.5°
1
43%
20:00
18°
1017.7 hPa 0.8 mm 13.5°
1
42%
  CAPE Lifted Index Hail Supercell Tornado SRH 3km CL BTM PRES CL TOP PRES Swiss DWD icon SMHI TS
 06:35     20:38    Daglengte: 14:03 Vandaag
02:00 7 J/kg 0.4 K 0 % 0 % 0 % 0 m²/s² 0 0 0.61 3
03:00 38 J/kg 0.5 K 0 % 0 % 0 % 0 m²/s² 0 0 0.53 3
04:00 0 J/kg 0.3 K 0 % 0 % 0 % 0 m²/s² 0 0 0.6 3
05:00 0 J/kg 1.0 K 0 % 0 % 0 % 0 m²/s² 0 0 2.68 3
06:00 0 J/kg 1.5 K 0 % 0 % 0 % 0 m²/s² 0 0 2.76 3
07:00 0 J/kg 1.3 K 0 % 0 % 0 % 0 m²/s² 0 0 2.98 3
08:00 4 J/kg 1.1 K 0 % 0 % 0 % 0 m²/s² 0 0 2.6 80
09:00 22 J/kg 0.8 K 0 % 0 % 0 % 0 m²/s² 0 0 2.78 95
10:00 97 J/kg 0.3 K 0 % 0 % 0 % 0 m²/s² 0 0 2.16 80
11:00 203 J/kg -0.3 K 0 % 0 % 0 % 0 m²/s² 0 0 1.74 80
12:00 266 J/kg -0.7 K 0 % 0 % 0 % 0 m²/s² 0 0 1.7 80
13:00 159 J/kg -0.4 K 0 % 0 % 0 % 0 m²/s² 0 0 2.81 80
14:00 50 J/kg 0.7 K 0 % 0 % 0 % 0 m²/s² 0 0 4.39 80
15:00 137 J/kg 0.6 K 0 % 0 % 0 % 0 m²/s² 0 0 3.24 95
16:00 178 J/kg -0.6 K 0 % 0 % 0 % 0 m²/s² 0 0 2.19 3
17:00 169 J/kg -1.0 K 0 % 0 % 0 % 0 m²/s² 0 0 1.73 3
18:00 164 J/kg -0.9 K 0 % 0 % 0 % 0 m²/s² 0 0 0.66 3
19:00 114 J/kg -0.2 K 0 % 0 % 0 % 0 m²/s² 0 0 1.6 80
20:00 41 J/kg 0.5 K 0 % 0 % 0 % 0 m²/s² 0 0 2.99 3
21:00 13 J/kg 1.2 K 0 % 0 % 0 % 0 m²/s² 0 0 3.39 3
22:00 24 J/kg 1.2 K 0 % 0 % 0 % 0 m²/s² 0 0 3.18 3
23:00 16 J/kg 1.3 K 0 % 0 % 0 % 0 m²/s² 0 0 2.56 3
 06:36     20:36    Daglengte: 14:00 Morgen
00:00 71 J/kg 0.3 K 0 % 0 % 0 % 0 m²/s² 0 0 1.11 3
01:00 54 J/kg 0.4 K 0 % 0 % 0 % 0 m²/s² 0 0 1.42 3
02:00 85 J/kg 0.8 K 0 % 0 % 0 % 0 m²/s² 0 0 1.25 3
03:00 75 J/kg 0.6 K 0 % 0 % 0 % 0 m²/s² 0 0 0.72 3
04:00 42 J/kg 0.5 K 0 % 0 % 0 % 0 m²/s² 0 0 0.71 2
05:00 25 J/kg 0.8 K 0 % 0 % 0 % 0 m²/s² 0 0 0.89 2
06:00 13 J/kg 1.4 K 0 % 0 % 0 % 0 m²/s² 0 0 1.49 3
07:00 3 J/kg 1.7 K 0 % 0 % 0 % 0 m²/s² 0 0 1.73 3
08:00 42 J/kg 1.2 K 0 % 0 % 0 % 0 m²/s² 0 0 1.23 3
09:00 152 J/kg 0.6 K 0 % 0 % 0 % 0 m²/s² 0 0 0.72 3
10:00 183 J/kg 0.4 K 0 % 0 % 0 % 0 m²/s² 0 0 0.79 3
11:00 188 J/kg -0.1 K 0 % 0 % 0 % 0 m²/s² 0 0 0.65 3
12:00 161 J/kg 0.1 K 0 % 0 % 0 % 0 m²/s² 0 0 1.06 2
13:00 100 J/kg 0.7 K 0 % 0 % 0 % 0 m²/s² 0 0 1.81 3
14:00 133 J/kg 0.3 K 0 % 0 % 0 % 0 m²/s² 0 0 1.41 2
15:00 108 J/kg 0.4 K 0 % 0 % 0 % 0 m²/s² 0 0 1.72 2
16:00 123 J/kg 0.3 K 0 % 0 % 0 % 0 m²/s² 0 0 2.28 80
17:00 129 J/kg 0.5 K 0 % 0 % 0 % 0 m²/s² 0 0 3.32 2
18:00 102 J/kg 0.9 K 0 % 0 % 0 % 0 m²/s² 0 0 4.05 1
19:00 114 J/kg 1.1 K 0 % 0 % 0 % 0 m²/s² 0 0 3.92 1
20:00 77 J/kg 1.4 K 0 % 0 % 0 % 0 m²/s² 0 0 5.21 2
21:00 64 J/kg 1.6 K 0 % 0 % 0 % 0 m²/s² 0 0 4.84 1
22:00 0 J/kg 2.5 K 0 % 0 % 0 % 0 m²/s² 0 0 5.02 0
23:00 0 J/kg 2.9 K 0 % 0 % 0 % 0 m²/s² 0 0 5.27 0
 06:38     20:34    Daglengte: 13:56 Zaterdag 20 Aug
00:00 0 J/kg 3.0 K 0 % 0 % 0 % 0 m²/s² 0 0 5.25 0
01:00 0 J/kg 3.0 K 0 % 0 % 0 % 0 m²/s² 0 0 5.25 1
02:00 0 J/kg 3.1 K 0 % 0 % 0 % 0 m²/s² 0 0 5.14 1
03:00 0 J/kg 3.6 K 0 % 0 % 0 % 0 m²/s² 0 0 5.46 0
04:00 1 J/kg 3.1 K 0 % 0 % 0 % 0 m²/s² 0 0 4.66 0
05:00 0 J/kg 2.6 K 0 % 0 % 0 % 0 m²/s² 0 0 4.16 2
06:00 0 J/kg 1.9 K 0 % 0 % 0 % 0 m²/s² 0 0 3.1 3
07:00 0 J/kg 1.6 K 0 % 0 % 0 % 0 m²/s² 0 0 2.35 61
08:00 0 J/kg 0.5 K 0 % 0 % 0 % 0 m²/s² 0 0 0.95 3
09:00 0 J/kg 0.5 K 0 % 0 % 0 % 0 m²/s² 0 0 0.5 2
10:00 47 J/kg -0.4 K 0 % 0 % 0 % 0 m²/s² 0 0 -0.19 2
11:00 319 J/kg -1.7 K 0 % 0 % 0 % 0 m²/s² 0 0 -1.07 2
12:00 423 J/kg -1.6 K 0 % 0 % 0 % 0 m²/s² 0 0 -0.85 2
13:00 639 J/kg -2.2 K 0 % 0 % 0 % 0 m²/s² 0 0 -1.33 80
14:00 818 J/kg -2.7 K 0 % 0 % 0 % 0 m²/s² 0 0 -1.53 80
15:00 863 J/kg -2.9 K 0 % 0 % 0 % 0 m²/s² 0 0 -0.8 80
16:00 1062 J/kg -3.7 K 0 % 0 % 0 % 0 m²/s² 0 0 -1.18 2
17:00 1003 J/kg -3.7 K 0 % 0 % 0 % 0 m²/s² 0 0 -0.07 2
18:00 855 J/kg -3.0 K 0 % 0 % 0 % 0 m²/s² 0 0 1.44 2
19:00 679 J/kg -2.5 K 0 % 0 % 0 % 0 m²/s² 0 0 2.54 1
20:00 575 J/kg -2.2 K 0 % 0 % 0 % 0 m²/s² 0 0 3.41 1
21:00 240 J/kg -1.0 K 0 % 0 % 0 % 0 m²/s² 0 0 4.94 1
22:00 65 J/kg 0.1 K 0 % 0 % 0 % 0 m²/s² 0 0 5.59 1
23:00 80 J/kg 0.3 K 0 % 0 % 0 % 0 m²/s² 0 0 5.25 1
 06:39     20:32    Daglengte: 13:53 Zondag 21 Aug
00:00 57 J/kg 0.5 K 0 % 0 % 0 % 0 m²/s² 0 0 5.99 1
01:00 16 J/kg 1.0 K 0 % 0 % 0 % 0 m²/s² 0 0 6.79 3
Temp Baro Wind Neerslag
  EWN Forecast EWN WRFDA DWD ICON FMI HIRLAM MET Norway GFS
 06:35     20:38    Daglengte: 14:03 Vandaag
02:00 17.2° 1014.4 hPa 1.1 m/s 3.8 mm 15.6° 1013.2 hPa 0.9 m/s 9.2 mm 17.3° 1013.7 hPa 0.7 m/s 0.8 mm 18.4° 1015.7 hPa 2.3 m/s 0.0 mm 16.3° 1014.7 hPa 0.8 m/s
05:00 17.1° 1013.2 hPa 1.2 m/s 0.0 mm 15.6° 1010.3 hPa 2.1 m/s 29.9 mm 17.3° 1012.6 hPa 0.5 m/s 0.0 mm 18.5° 1014.9 hPa 2.4 m/s 0.0 mm 16.3° 1014.5 hPa 0.8 m/s
08:00 17.5° 1013.2 hPa 1.0 m/s 0.0 mm 17.7° 1011.5 hPa 1.8 m/s 31.2 mm 17.5° 1013.1 hPa 0.4 m/s 0.4 mm 18.9° 1013.9 hPa 3.6 m/s 0.0 mm 16.4° 1014.1 hPa 0.8 m/s
11:00 19.6° 1013.4 hPa 1.9 m/s 0.0 mm 20.2° 1012.0 hPa 2.2 m/s 31.4 mm 19.1° 1013.6 hPa 1.6 m/s 1.6 mm 23.3° 1013.4 hPa 3.9 m/s 0.0 mm 20.7° 1013.8 hPa 1.3 m/s
14:00 20.6° 1012.4 hPa 2.1 m/s 7.4 mm 22.7° 1008.7 hPa 4.6 m/s 32.0 mm 19.7° 1012.9 hPa 0.6 m/s 1.7 mm 24.6° 1012.2 hPa 5.4 m/s 0.0 mm 21.9° 1012.6 hPa 1.6 m/s
17:00 20.5° 1012.0 hPa 1.9 m/s 8.1 mm 22.8° 1008.4 hPa 5.3 m/s 32.0 mm 19.1° 1012.6 hPa 0.6 m/s 3.0 mm 25.3° 1010.9 hPa 4.8 m/s 0.0 mm 21.3° 1012.3 hPa 1.7 m/s
20:00 19.5° 1012.3 hPa 1.9 m/s 2.3 mm 19.7° 1009.1 hPa 3.0 m/s 32.0 mm 18.7° 1012.9 hPa 0.6 m/s 0.9 mm 24.3° 1011.6 hPa 3.8 m/s 0.0 mm 18.6° 1013.3 hPa 1.1 m/s
23:00 18.4° 1013.4 hPa 1.5 m/s 0.0 mm 16.9° 1010.6 hPa 2.0 m/s 32.0 mm 18.1° 1013.7 hPa 0.4 m/s 0.0 mm 22.6° 1012.7 hPa 4.6 m/s 0.0 mm 17.3° 1014.0 hPa 0.8 m/s
 06:36     20:36    Daglengte: 14:00 Morgen
02:00 18.0° 1013.7 hPa 1.8 m/s 0.0 mm 16.9° 1011.4 hPa 0.4 m/s 32.9 mm 17.6° 1014.0 hPa 0.8 m/s 0.0 mm 22.9° 1012.8 hPa 4.4 m/s 0.0 mm 16.7° 1013.2 hPa 1.0 m/s
05:00 17.8° 1013.4 hPa 2.5 m/s 0.0 mm 17.1° 1011.3 hPa 1.1 m/s 34.0 mm 17.6° 1013.6 hPa 0.4 m/s 0.0 mm 21.8° 1012.6 hPa 5.3 m/s 0.0 mm 16.5° 1013.4 hPa 1.7 m/s
08:00 17.9° 1015.0 hPa 2.5 m/s 0.0 mm 18.3° 1012.5 hPa 2.4 m/s 34.0 mm 17.9° 1015.4 hPa 0.4 m/s 0.0 mm 20.2° 1013.7 hPa 5.4 m/s 0.0 mm 16.7° 1015.1 hPa 1.6 m/s
11:00 19.5° 1016.2 hPa 2.1 m/s 0.0 mm 21.7° 1013.8 hPa 5.3 m/s 34.0 mm 19.1° 1016.6 hPa 1.3 m/s 0.1 mm 20.7° 1014.7 hPa 5.3 m/s 0.0 mm 18.6° 1016.3 hPa 0.6 m/s
14:00 21.5° 1016.4 hPa 2.6 m/s 0.0 mm 24.1° 1013.9 hPa 6.0 m/s 34.0 mm 21.1° 1017.2 hPa 1.8 m/s 0.3 mm 22.4° 1014.8 hPa 5.2 m/s 0.0 mm 20.8° 1016.3 hPa 0.5 m/s
17:00 22.1° 1016.3 hPa 2.7 m/s 2.5 mm 24.7° 1014.2 hPa 5.4 m/s 34.0 mm 21.2° 1017.1 hPa 2.6 m/s 0.2 mm 25.7° 1014.7 hPa 3.5 m/s 0.0 mm 21.5° 1016.6 hPa 0.8 m/s
20:00 20.6° 1017.3 hPa 1.3 m/s 0.0 mm 20.4° 1015.0 hPa 2.2 m/s 34.0 mm 20.4° 1018.1 hPa 2.6 m/s 0.0 mm 23.4° 1015.8 hPa 0.5 m/s 0.0 mm 18.9° 1017.3 hPa 0.0 m/s
23:00 18.0° 1018.8 hPa 1.6 m/s 0.0 mm 18.4° 1016.8 hPa 3.8 m/s 34.0 mm 18.6° 1019.0 hPa 1.5 m/s 0.0 mm 16.4° 1019.0 hPa 0.2 m/s
 06:38     20:34    Daglengte: 13:56 Zaterdag 20 Aug
02:00 16.6° 1018.9 hPa 2.5 m/s 0.0 mm 17.0° 1016.7 hPa 3.7 m/s 34.0 mm 17.4° 1019.1 hPa 1.1 m/s 0.0 mm 16.4° 1018.6 hPa 0.5 m/s
05:00 15.4° 1018.6 hPa 2.7 m/s 0.0 mm 15.3° 1016.2 hPa 3.2 m/s 34.0 mm 16.3° 1018.8 hPa 0.7 m/s 0.0 mm 15.7° 1018.4 hPa 0.8 m/s
08:00 16.9° 1019.4 hPa 1.7 m/s 7.9 mm 17.8° 1017.4 hPa 5.4 m/s 34.1 mm 16.7° 1019.9 hPa 0.7 m/s 0.6 mm 17.4° 1018.3 hPa 0.9 m/s
11:00 18.5° 1019.7 hPa 1.1 m/s 4.5 mm 18.8° 1018.7 hPa 1.9 m/s 38.1 mm 18.5° 1020.0 hPa 0.9 m/s 0.4 mm 20.9° 1018.2 hPa 0.7 m/s
14:00 20.4° 1019.1 hPa 0.7 m/s 13.8 mm 21.5° 1017.6 hPa 0.8 m/s 39.6 mm 20.1° 1019.5 hPa 0.7 m/s 0.8 mm 22.3° 1017.9 hPa 0.5 m/s
17:00 21.4° 1018.3 hPa 2.9 m/s 0.0 mm 22.2° 1017.1 hPa 1.4 m/s 41.0 mm 21.2° 1018.6 hPa 3.3 m/s 0.1 mm 21.6° 1017.6 hPa 1.8 m/s
20:00 19.9° 1018.8 hPa 1.9 m/s 0.0 mm 21.3° 1017.1 hPa 1.9 m/s 42.0 mm 19.6° 1019.2 hPa 1.9 m/s 0.0 mm 18.4° 1018.5 hPa 2.5 m/s
23:00 17.6° 1019.4 hPa 1.5 m/s 0.0 mm 18.2° 1017.6 hPa 3.6 m/s 42.0 mm 17.5° 1019.8 hPa 1.0 m/s 0.0 mm 15.9° 1019.7 hPa 1.7 m/s
 06:39     20:32    Daglengte: 13:53 Zondag 21 Aug
02:00 16.3° 1018.8 hPa 1.2 m/s 0.0 mm 15.1° 1016.9 hPa 2.1 m/s 42.0 mm 16.6° 1019.3 hPa 1.0 m/s 0.0 mm 14.9° 1018.9 hPa 1.0 m/s
05:00 14.2° 1017.7 hPa 0.9 m/s 81.8 mm 14.2° 1017.7 hPa 0.9 m/s 81.8 mm
08:00 15.5° 1017.5 hPa 0.5 m/s 81.8 mm 15.5° 1017.5 hPa 0.5 m/s 81.8 mm
11:00 21.1° 1016.8 hPa 0.4 m/s 81.8 mm 21.1° 1016.8 hPa 0.4 m/s 81.8 mm
14:00 23.5° 1015.5 hPa 1.0 m/s 81.8 mm 23.5° 1015.5 hPa 1.0 m/s 81.8 mm
17:00 20.6° 1016.2 hPa 3.0 m/s 81.8 mm 20.6° 1016.2 hPa 3.0 m/s 81.8 mm
20:00 18.3° 1016.3 hPa 1.5 m/s 81.8 mm 18.3° 1016.3 hPa 1.5 m/s 81.8 mm
23:00 16.3° 1017.0 hPa 1.6 m/s 81.8 mm 16.3° 1017.0 hPa 1.6 m/s 81.8 mm
 06:40     20:30    Daglengte: 13:50 Maandag 22 Aug
02:00 15.4° 1016.5 hPa 1.9 m/s 81.8 mm 15.4° 1016.5 hPa 1.9 m/s 81.8 mm
05:00 14.5° 1016.5 hPa 2.0 m/s 81.8 mm 14.5° 1016.5 hPa 2.0 m/s 81.8 mm
08:00 15.4° 1017.0 hPa 2.1 m/s 81.8 mm 15.4° 1017.0 hPa 2.1 m/s 81.8 mm
11:00 21.4° 1016.2 hPa 3.3 m/s 81.8 mm 21.4° 1016.2 hPa 3.3 m/s 81.8 mm
14:00 24.5° 1015.4 hPa 4.0 m/s 81.8 mm 24.5° 1015.4 hPa 4.0 m/s 81.8 mm
17:00 24.6° 1014.9 hPa 4.5 m/s 81.8 mm 24.6° 1014.9 hPa 4.5 m/s 81.8 mm
20:00 20.5° 1015.6 hPa 2.6 m/s 81.9 mm 20.5° 1015.6 hPa 2.6 m/s 81.9 mm
23:00 18.3° 1016.6 hPa 3.4 m/s 81.9 mm 18.3° 1016.6 hPa 3.4 m/s 81.9 mm
 06:42     20:29    Daglengte: 13:47 Dinsdag 23 Aug
02:00 15.8° 1016.9 hPa 3.0 m/s 81.9 mm 15.8° 1016.9 hPa 3.0 m/s 81.9 mm
05:00 15.1° 1017.3 hPa 2.9 m/s 81.9 mm 15.1° 1017.3 hPa 2.9 m/s 81.9 mm
08:00 15.9° 1017.9 hPa 3.1 m/s 81.9 mm 15.9° 1017.9 hPa 3.1 m/s 81.9 mm
11:00 22.1° 1017.0 hPa 5.1 m/s 81.9 mm 22.1° 1017.0 hPa 5.1 m/s 81.9 mm
14:00 24.9° 1016.1 hPa 5.6 m/s 81.9 mm 24.9° 1016.1 hPa 5.6 m/s 81.9 mm
17:00 24.9° 1015.5 hPa 5.2 m/s 81.9 mm 24.9° 1015.5 hPa 5.2 m/s 81.9 mm
20:00 20.0° 1016.4 hPa 3.2 m/s 81.9 mm 20.0° 1016.4 hPa 3.2 m/s 81.9 mm
23:00 16.9° 1017.5 hPa 3.3 m/s 81.9 mm 16.9° 1017.5 hPa 3.3 m/s 81.9 mm
 06:43     20:27    Daglengte: 13:44 Woensdag 24 Aug
02:00 15.6° 1017.1 hPa 3.3 m/s 81.9 mm 15.6° 1017.1 hPa 3.3 m/s 81.9 mm
05:00 14.6° 1017.1 hPa 2.7 m/s 81.9 mm 14.6° 1017.1 hPa 2.7 m/s 81.9 mm
08:00 15.4° 1017.6 hPa 1.7 m/s 81.9 mm 15.4° 1017.6 hPa 1.7 m/s 81.9 mm
11:00 21.1° 1016.9 hPa 2.4 m/s 81.9 mm 21.1° 1016.9 hPa 2.4 m/s 81.9 mm
14:00 24.9° 1015.9 hPa 3.0 m/s 81.9 mm 24.9° 1015.9 hPa 3.0 m/s 81.9 mm
17:00 25.6° 1015.4 hPa 2.8 m/s 81.9 mm 25.6° 1015.4 hPa 2.8 m/s 81.9 mm
20:00 20.4° 1016.3 hPa 2.6 m/s 81.9 mm 20.4° 1016.3 hPa 2.6 m/s 81.9 mm
23:00 17.5° 1017.5 hPa 2.6 m/s 81.9 mm 17.5° 1017.5 hPa 2.6 m/s 81.9 mm
 06:44     20:25    Daglengte: 13:41 Donderdag 25 Aug
02:00 16.1° 1017.7 hPa 1.7 m/s 81.9 mm 16.1° 1017.7 hPa 1.7 m/s 81.9 mm
08:00 16.4° 1018.0 hPa 0.5 m/s 81.9 mm 16.4° 1018.0 hPa 0.5 m/s 81.9 mm
14:00 26.3° 1016.0 hPa 1.2 m/s 81.9 mm 26.3° 1016.0 hPa 1.2 m/s 81.9 mm
20:00 23.2° 1015.4 hPa 1.4 m/s 81.9 mm 23.2° 1015.4 hPa 1.4 m/s 81.9 mm
 06:45     20:23    Daglengte: 13:38 Vrijdag 26 Aug
02:00 18.3° 1016.8 hPa 0.6 m/s 81.9 mm 18.3° 1016.8 hPa 0.6 m/s 81.9 mm
08:00 18.4° 1016.7 hPa 0.3 m/s 81.9 mm 18.4° 1016.7 hPa 0.3 m/s 81.9 mm
14:00 28.0° 1014.3 hPa 1.0 m/s 81.9 mm 28.0° 1014.3 hPa 1.0 m/s 81.9 mm
20:00 24.0° 1013.9 hPa 1.3 m/s 81.9 mm 24.0° 1013.9 hPa 1.3 m/s 81.9 mm
 06:47     20:21    Daglengte: 13:34 Zaterdag 27 Aug
02:00 19.0° 1016.3 hPa 3.4 m/s 83.2 mm 19.0° 1016.3 hPa 3.4 m/s 83.2 mm
08:00 19.1° 1016.3 hPa 0.6 m/s 83.9 mm 19.1° 1016.3 hPa 0.6 m/s 83.9 mm
14:00 26.1° 1016.4 hPa 1.4 m/s 85.7 mm 26.1° 1016.4 hPa 1.4 m/s 85.7 mm
20:00 21.4° 1017.8 hPa 1.7 m/s 0.5 mm
 06:48     20:19    Daglengte: 13:31 Zondag 28 Aug
02:00 16.8° 1019.3 hPa 0.5 m/s 1.8 mm
08:00 16.6° 1019.7 hPa 0.3 m/s 0.8 mm
14:00 26.3° 1018.5 hPa 1.2 m/s 0.6 mm
20:00 21.3° 1018.8 hPa 1.5 m/s 0.9 mm
 06:49     20:17    Daglengte: 13:28 Maandag 29 Aug
02:00 16.6° 1020.2 hPa 0.2 m/s 0.9 mm
08:00 16.5° 1020.3 hPa 0.2 m/s 0.4 mm
14:00 25.7° 1019.0 hPa 1.6 m/s 0.5 mm
20:00 20.5° 1018.8 hPa 1.6 m/s 0.6 mm
 06:51     20:15    Daglengte: 13:24 Dinsdag 30 Aug
02:00 15.9° 1020.0 hPa 0.1 m/s 0.8 mm
08:00 15.7° 1020.0 hPa 0.2 m/s 0.8 mm
14:00 24.9° 1018.2 hPa 1.3 m/s 0.6 mm
20:00 19.8° 1018.0 hPa 1.5 m/s 0.3 mm
 06:52     20:13    Daglengte: 13:21 Woensdag 31 Aug
02:00 15.3° 1019.2 hPa 0.3 m/s 0.8 mm
08:00 15.4° 1018.9 hPa 0.2 m/s 0.4 mm
14:00 24.3° 1017.1 hPa 1.4 m/s 0.6 mm
20:00 19.0° 1017.4 hPa 1.3 m/s 1.2 mm
 06:53     20:12    Daglengte: 13:19 Donderdag 01 Sep
02:00 14.7° 1018.8 hPa 0.2 m/s 1.1 mm
08:00 14.4° 1018.9 hPa 0.1 m/s 0.5 mm
14:00 23.4° 1017.4 hPa 1.3 m/s 0.5 mm
20:00 18.3° 1017.7 hPa 1.0 m/s 0.8 mm
FMI Hirlam - 7.5 km EWN WRFDA - 12 km DWD ICON - 7 km GFS - 25 km Basiskaart






























































Updatetijd (Europe/Amsterdam) Resolutie Lengte Stap
FMI Hirlam 19:15, 01:15, 07:15, 13:15 7.5 km 49h 1h
EWN WRFDA 22:30, 04:30, 10:30, 16:30 12 km 73h 1h
DWD ICON 23:45, 05:45, 11:45, 17:45 7 km 75h 1h
GFS 20:00, 02:00, 08:00, 14:00 25 km 237h 3h
30+ mm
25-30 mm
20-25 mm
15-20 mm
10-15 mm
6-10 mm
4-6 mm
2-4 mm
1-2 mm
0.5-1 mm
0.2-0.5 mm
0.1-0.2 mm
30+ mm
25-30 mm
20-25 mm
15-20 mm
10-15 mm
6-10 mm
4-6 mm
2-4 mm
1-2 mm
0.5-1 mm
0.2-0.5 mm
0.1-0.2 mm
Sneeuwval
Natte sneeuw
Hagel
Vorst
30+ mm
25-30 mm
20-25 mm
15-20 mm
10-15 mm
6-10 mm
4-6 mm
2-4 mm
1-2 mm
0.5-1 mm
0.2-0.5 mm
0.1-0.2 mm
Sneeuwval
Natte sneeuw
Hagel
Vorst
Onweer
50 mm
40 mm
30 mm
26 mm
22 mm
18 mm
14 mm
10 mm
9 mm
8 mm
7 mm
6 mm
5 mm
4.5 mm
4 mm
3.5 mm
3 mm
2.5 mm
2 mm
1.5 mm
1 mm
0.8 mm
0.6 mm
0.4 mm
0.2 mm
0.05 mm
35°
30°
25°
20°
15°
10°
-5°
-10°
-15°
-20°
-25°
-30°
-35°
33> m/s
29 m/s
25 m/s
21 m/s
17 m/s
14 m/s
11 m/s
8 m/s
5 m/s
3 m/s
0 m/s
2600 J/kg
2400 J/kg
2200 J/kg
2000 J/kg
1800 J/kg
1600 J/kg
1400 J/kg
1200 J/kg
1000 J/kg
800 J/kg
600 J/kg
400 J/kg
200 J/kg
70 dBZ
65 dBZ
60 dBZ
55 dBZ
50 dBZ
45 dBZ
40 dBZ
35 dBZ
30 dBZ
25 dBZ
20 dBZ
15 dBZ
10 dBZ
5 dBZ
-1 K
-2 K
-3 K
-4 K
-5 K
-6 K
-7 K
-8 K
-9 K
950 m²/s²
900 m²/s²
850 m²/s²
800 m²/s²
750 m²/s²
700 m²/s²
650 m²/s²
600 m²/s²
550 m²/s²
500 m²/s²
450 m²/s²
400 m²/s²
350 m²/s²
300 m²/s²
250 m²/s²
200 m²/s²
150 m²/s²
100 m²/s²
46 m/s
44 m/s
42 m/s
40 m/s
38 m/s
36 m/s
34 m/s
32 m/s
30 m/s
28 m/s
26 m/s
24 m/s
22 m/s
20 m/s
16 m/s
12 m/s
8 m/s
4 m/s
30 m/s
28 m/s
26 m/s
24 m/s
22 m/s
20 m/s
18 m/s
16 m/s
14 m/s
12 m/s
10 m/s
8 m/s
6 m/s
4 m/s
2 m/s
3.0
2.8
2.6
2.4
2.2
2.0
1.8
1.6
1.4
1.2
1.0
0.8
0.6
0.4
0.2
15
14
13
12
11
10
9
8
7
6
5
4
3
2
1
90%
80%
70%
60%
50%
40%
30%
20%
10%
42
40
38
36
34
32
30